User: anonymous   Login
Location: Unspecified
(0.0000°N, 0.0000°E)
Time: 15:42:14
(UTC+02:00)
Language:

Cosmos 1782 Rocket - Orbit

View from above orbital plane
View from above orbital plane
View from above satellite
View from above satellite

Ground track
Ground track

The orbit data is extracted from the following two-line orbital elements,

1 16987U 86074B   15145.95549729  .00000221  00000-0  24385-4 0  9993
2 16987 082.5154 295.7339 0017374 217.8884 261.5304 14.82745930546847
Epoch (UTC): 25 May 2015 22:55:54
Eccentricity: 0.0017374
inclination: 82.5154°
perigee height: 608 km
apogee height: 633 km
right ascension of ascending node: 295.7339°
argument of perigee: 217.8884°
revolutions per day: 14.82745930
mean anomaly at epoch: 261.5304°
orbit number at epoch: 54684

The dashed part of the orbit path shows where the satellite is in the earth's shadow,  

DLR